Ellington Field, TX

5:36 AM CDT on May 28, 2017 (GMT -0500)
Ellington

Weather History for KEFD - July, 2014

Change the Weather History Date:

Monday, July 7, 2014

  Actual Average Record
Temperature  
Mean Temperature 88 °F -  
Max Temperature 100 °F 90 °F 100 °F (2014)
Min Temperature 77 °F 73 °F 68 °F (2005)
Cooling Degree Days 24    
Growing Degree Days 38 (Base 50)    
Moisture  
Dew Point 75 °F    
Average Humidity 74    
Maximum Humidity 89    
Minimum Humidity 44    
Precipitation  
Precipitation 0.00 in - - ()
Sea Level Pressure  
Sea Level Pressure 30.03 in    
Wind  
Wind Speed 3 mph (SSE)    
Max Wind Speed 9 mph    
Max Gust Speed -    
Visibility 10 miles    
Events Rain , Thunderstorm    
Averages and records for this station are not official NWS values.
T = Trace of Precipitation, MM = Missing Value Source: NWS Daily Summary

Daily Weather History Graph

Daily Weather History Graph

Search for Another Location

Airport or City:

Trip Planner

Search our weather history database for the weather conditions in past years. The results will help you decide how hot, cold, wet, or windy it might be!

Date:

Astronomy

Jul. 07, 2014 Rise Set
Actual Time 6:26 AM CDT 8:24 PM CDT
Civil Twilight 5:59 AM CDT 8:51 PM CDT
Nautical Twilight 5:26 AM CDT 9:24 PM CDT
Astronomical Twilight 4:51 AM CDT 9:58 PM CDT
Moon 3:39 PM CDT (7/7) 2:07 AM CDT (7/7)
Length of Visible Light 14h 51m
Length of Day
13h 57m
Waxing Gibbous, 72% of the Moon is Illuminated
Jul 7
Waxing Gibbous
Jul 12
Full
Jul 18
Last Quarter
Jul 26
New
Aug 3
First Quarter

Hourly Weather History & Observations

Time (CDT) Temp. Heat Index Dew Point Humidity Pressure Visibility Wind Dir Wind Speed Gust Speed Precip Events Conditions
12:50 AM 78.8 °F - 73.4 °F 83% 30.03 in 10.0 mi Calm Calm - N/A   Partly Cloudy
2:50 AM 78.8 °F - 73.4 °F 83% 30.02 in 10.0 mi Calm Calm - N/A   Partly Cloudy
3:50 AM 77.0 °F - 73.4 °F 89% 30.02 in 10.0 mi Calm Calm - N/A   Partly Cloudy
4:50 AM 77.0 °F - 73.4 °F 89% 30.02 in 10.0 mi Calm Calm - N/A   Partly Cloudy
5:50 AM 77.0 °F - 73.4 °F 89% 30.02 in 10.0 mi SW 5.8 mph - N/A   Partly Cloudy
6:50 AM 77.0 °F - 73.4 °F 89% 30.03 in 10.0 mi Calm Calm - N/A   Scattered Clouds
7:50 AM 84.2 °F 98.3 °F 80.6 °F 89% 30.04 in 10.0 mi SW 3.5 mph - N/A   Partly Cloudy
8:50 AM 84.2 °F 94.1 °F 77.0 °F 79% 30.05 in 10.0 mi SW 5.8 mph - N/A   Scattered Clouds
9:50 AM 96.8 °F 114.8 °F 78.8 °F 56% 30.06 in 10.0 mi SW 8.1 mph - N/A   Mostly Cloudy
10:50 AM 96.8 °F 114.8 °F 78.8 °F 56% 30.06 in 10.0 mi South 3.5 mph - N/A   Mostly Cloudy
11:50 AM 100.4 °F 113.6 °F 75.2 °F 44% 30.06 in 10.0 mi WSW 6.9 mph - N/A   Mostly Cloudy
12:50 PM 100.4 °F 113.6 °F 75.2 °F 44% 30.05 in 10.0 mi South 5.8 mph - N/A   Mostly Cloudy
1:50 PM 91.4 °F 102.5 °F 75.2 °F 59% 30.03 in 10.0 mi ESE 8.1 mph - N/A   Mostly Cloudy
2:50 PM 87.8 °F 95.6 °F 73.4 °F 62% 30.02 in 10.0 mi ESE 9.2 mph - N/A   Mostly Cloudy
3:35 PM 86.0 °F 93.4 °F 73.4 °F 66% 30.02 in 10.0 mi NNE 2.3 mph - N/A Rain , Thunderstorm Thunderstorms and Rain
3:50 PM 80.6 °F 86.2 °F 75.2 °F 84% 30.02 in 7.0 mi ENE 8.1 mph - N/A Rain Rain
4:50 PM 84.2 °F 92.3 °F 75.2 °F 74% 30.00 in 10.0 mi East 9.2 mph - N/A   Mostly Cloudy
5:50 PM 84.2 °F 92.3 °F 75.2 °F 74% 30.00 in 10.0 mi East 8.1 mph - N/A Thunderstorm Thunderstorm
7:50 PM 84.2 °F 92.3 °F 75.2 °F 74% 30.00 in 10.0 mi South 9.2 mph - N/A   Mostly Cloudy
8:50 PM 82.4 °F 89.5 °F 75.2 °F 79% 30.00 in 10.0 mi SSE 4.6 mph - N/A   Mostly Cloudy
9:50 PM 82.4 °F 89.5 °F 75.2 °F 79% 30.02 in 10.0 mi South 4.6 mph - N/A   Mostly Cloudy
10:50 PM 80.6 °F 86.2 °F 75.2 °F 84% 30.02 in 10.0 mi SSE 6.9 mph - N/A   Mostly Cloudy
11:50 PM 80.6 °F 86.2 °F 75.2 °F 84% 30.03 in 10.0 mi SSE 3.5 mph - N/A   Mostly Cloudy